Temperature
16 16 16 16 17 16 15 15 15 15 15 16 16 16 16 17 17 17 17 17 17 17 17 17 17 17 17 16 16 16 16 16 16 16 16 15 15 15 15 15 14 14 14 14
16 16 16 16 16 16 15 15 15 15 15 16 16 16 16 16 16 16 17 17 17 17 17 17 17 17 17 16 16 16 16 16 16 16 15 15 15 15 15 14 14 14 14 14
14 15 16 15 16 16 15 15 15 15 15 15 15 15 16 16 17 17 17 17 17 17 17 17 17 17 16 16 16 16 16 16 16 16 15 15 15 15 15 14 14 14 14 14
13 15 15 15 16 16 16 15 15 15 15 15 16 17 17 17 18 18 18 17 17 17 17 17 17 16 16 16 16 16 16 15 15 15 15 15 15 15 14 14 14 14 14 14
12 13 14 15 16 15 15 15 15 15 15 16 16 16 16 17 18 18 18 18 18 17 17 16 16 16 16 16 15 15 15 15 15 15 15 15 15 15 14 14 14 14 13 13
11 13 14 15 16 16 16 15 15 15 15 15 15 14 15 17 17 18 17 17 17 17 16 16 16 16 16 15 15 15 15 15 15 15 15 14 14 14 14 14 14 13 13 13
11 13 13 14 15 16 15 15 16 16 15 15 14 15 17 17 17 17 17 17 17 16 16 16 16 15 15 15 15 15 15 14 14 14 14 14 14 14 14 14 14 13 13 13
11 12 13 14 14 14 14 16 16 15 15 15 16 16 16 17 17 17 16 16 16 16 16 16 15 15 15 15 15 14 14 14 14 14 14 14 14 13 13 13 13 13 13 12
11 12 13 14 15 16 16 16 16 16 16 16 15 16 16 16 16 16 16 16 16 15 15 15 15 15 15 15 14 14 14 13 13 13 13 13 13 13 13 13 13 13 13 12
10 11 12 14 14 15 16 16 16 16 16 16 15 15 16 16 16 16 16 15 15 15 15 14 14 14 14 14 14 14 13 13 13 13 13 13 12 12 12 12 12 12 12 12
10 10 12 13 14 14 15 15 15 15 15 15 15 15 15 15 15 15 15 15 15 14 14 14 14 14 14 13 13 13 13 13 13 12 12 12 12 12 12 12 12 12 12 12
10 11 11 13 14 14 14 14 14 14 14 14 15 15 15 15 15 15 15 14 14 14 14 14 13 13 13 13 13 13 12 12 12 12 12 12 12 12 11 11 11 11 11 11
13 13 13 13 13 13 14 14 14 14 14 14 14 14 14 14 14 14 14 14 14 14 13 13 13 13 13 13 12 12 12 12 12 12 11 11 11 11 11 11 11 11 11 11
12 12 12 12 13 13 13 13 13 13 13 13 13 13 13 13 13 13 13 13 13 13 13 13 13 13 12 12 12 12 11 11 11 11 11 11 11 11 11 11 11 11 11 11
12 12 12 12 12 12 12 12 12 13 13 13 13 13 13 13 13 13 12 12 12 12 12 12 12 12 12 11 11 11 11 11 11 10 10 10 10 10 10 10 10 10 10 10
11 11 11 11 11 11 11 12 12 12 12 12 12 12 12 12 12 12 12 12 12 12 12 11 11 11 11 11 11 11 10 10 10 10 10 10 10 10 10 10 10 10 10 10
11 10 11 11 11 11 11 11 11 11 11 11 11 11 11 11 11 11 11 11 11 11 11 11 11 11 11 10 10 10 10 10 10 10 9 9 9 9 9 9 9 9 9 9
11 11 11 11 11 11 10 10 10 10 10 10 10 10 10 10 10 10 10 10 10 10 10 10 10 10 10 10 10 10 10 9 9 9 9 9 9 9 9 8 8 8 8 8
10 10 10 10 10 10 10 10 10 10 10 10 10 10 10 10 10 10 10 9 9 9 9 9 9 9 9 9 9 9 9 9 9 8 8 8 8 8 8 8 8 8 8 8
10 10 10 10 10 10 10 10 9 9 9 9 9 9 9 9 9 9 9 9 9 9 9 8 8 8 8 8 8 8 8 8 8 8 8 8 8 8 8 7 7 7 7 7
9 9 9 9 9 9 9 9 9 9 9 9 9 9 9 9 8 8 8 8 8 8 8 8 8 8 8 8 8 7 7 7 7 7 7 7 7 7 7 7 7 7 7 7
9 9 9 9 9 9 9 9 9 9 8 8 8 8 8 8 8 8 8 8 8 7 7 7 7 7 7 7 7 7 6 6 6 6 6 6 6 6 6 6 6 6 6 6
9 8 8 8 8 8 8 8 8 8 8 8 8 8 8 7 7 7 7 7 7 7 7 7 7 6 6 6 6 6 6 6 6 6 6 6 6 6 6 6 6 6 6 6
8 8 8 8 8 8 8 8 8 8 8 8 7 7 7 7 7 7 7 7 7 7 7 6 6 6 6 6 6 5 5 5 5 5 5 5 5 5 5 5 5 5 5 5
7 7 7 7 7 7 7 7 7 7 7 7 7 7 7 7 7 7 6 6 6 6 6 6 6 6 6 6 5 5 5 5 5 5 5 5 4 4 4 4 4 5 5 5
7 7 7 7 7 7 7 7 7 7 7 7 7 6 6 6 6 6 6 6 6 6 6 6 6 5 5 5 5 5 5 4 4 4 4 4 4 4 4 4 4 4 4 4
6 6 6 6 6 6 6 6 6 6 6 6 6 6 6 6 6 6 6 6 6 5 5 5 5 5 5 5 5 4 4 4 4 4 4 4 3 3 3 3 3 3 3 3
Wind_Speed
4 4 3 4 4 6 6 7 8 7 7 8 6 5 4 3 3 3 2 2 3 3 3 2 2 2 2 2 2 2 3 3 3 3 3 3 2 2 2 2 3 3 3 3
2 2 3 4 6 6 7 5 6 5 7 7 4 3 2 3 4 4 4 4 4 3 3 3 3 3 2 2 2 2 3 3 3 3 3 3 3 3 3 2 2 3 3 3
3 3 2 6 6 7 5 5 7 8 8 3 3 5 6 6 6 7 6 6 5 5 5 5 5 4 4 3 3 3 3 3 3 3 3 3 3 3 3 3 3 3 3 3
1 1 5 7 3 5 5 5 5 5 5 5 7 6 5 5 7 7 6 6 6 6 5 4 4 3 3 2 3 3 3 2 3 3 3 3 3 3 3 3 3 3 3 3
3 3 6 7 4 4 5 4 5 6 5 4 2 1 3 3 5 6 6 6 6 5 5 4 3 3 3 3 3 3 3 3 3 4 4 3 3 3 3 3 3 3 2 3
4 4 7 7 4 3 3 5 5 4 4 3 4 2 5 4 3 4 3 3 3 3 3 3 2 4 4 3 3 4 4 4 3 3 4 4 4 3 2 3 3 3 2 3
5 5 7 7 3 4 4 6 3 4 4 4 6 6 5 2 3 3 3 2 3 4 3 3 3 4 4 3 4 4 3 3 3 3 4 4 3 3 3 3 3 3 3 2
5 5 8 4 4 6 6 2 1 2 2 3 3 2 1 1 3 3 3 3 3 4 2 2 4 5 4 3 3 2 3 3 3 3 3 3 4 3 3 4 4 3 3 1
7 7 4 1 3 3 3 2 2 2 2 3 2 2 1 1 2 3 3 3 3 4 3 1 2 4 4 3 2 3 3 3 3 2 2 3 4 4 3 3 3 3 3 2
3 5 4 3 2 1 1 2 2 3 3 3 3 2 2 2 2 3 3 3 3 4 3 2 2 3 3 2 3 4 4 3 3 3 2 2 3 3 3 3 3 3 3 3
5 6 3 4 4 3 1 1 1 1 1 3 3 2 2 3 3 3 3 3 4 4 4 3 2 2 2 2 4 4 4 3 3 3 3 2 2 2 3 4 5 5 4 4
7 7 5 6 4 2 2 2 2 1 1 1 2 3 3 2 2 2 3 3 3 3 3 2 2 2 2 3 4 5 4 3 3 3 2 2 3 1 0 1 2 4 3 4
6 5 5 5 3 2 2 2 2 2 2 1 1 2 3 2 2 2 3 3 4 3 3 3 2 2 2 3 3 4 4 3 3 3 3 3 3 3 2 1 1 1 3 3
5 3 4 5 4 3 2 2 1 0 1 1 1 2 2 2 2 2 2 3 3 2 2 3 3 3 3 3 3 4 3 4 3 3 4 3 3 3 3 3 2 1 1 3
6 6 6 4 2 1 1 0 1 1 1 1 1 2 2 2 2 2 1 1 2 2 2 2 3 3 2 3 3 4 3 3 3 3 3 3 3 3 3 3 3 2 1 1
5 4 4 4 4 3 2 2 2 2 1 1 1 1 2 2 2 1 1 2 2 2 3 3 3 3 3 3 4 3 3 4 4 3 3 3 3 3 3 4 3 3 3 3
4 5 5 4 5 4 4 5 5 4 3 2 2 2 2 1 1 1 1 2 3 3 3 3 3 3 3 4 4 4 3 4 4 3 3 4 4 4 5 4 4 4 4 4
6 7 7 7 6 5 4 4 3 4 4 3 2 2 2 3 3 3 2 1 0 1 2 3 3 2 3 3 3 3 3 3 3 4 3 3 4 4 4 5 5 5 4 4
4 4 5 5 6 5 5 4 4 4 3 3 3 3 3 3 3 3 2 1 1 2 4 3 2 1 2 3 2 2 3 3 3 3 3 4 4 4 4 4 5 5 4 4
2 2 2 3 2 3 4 3 3 3 3 3 2 2 2 3 3 2 3 3 4 3 3 2 1 1 2 3 2 2 3 3 4 3 3 4 4 4 5 5 5 5 5 5
2 2 2 2 2 2 3 3 3 3 2 2 3 3 3 3 3 2 2 3 3 2 1 2 1 2 2 2 2 2 3 3 3 3 4 4 4 5 5 5 5 5 5 5
2 2 2 2 2 2 2 2 3 3 2 2 2 2 2 2 2 2 2 3 3 2 1 1 1 2 2 1 1 2 2 2 2 2 3 4 4 5 5 6 6 5 5 5
2 1 2 2 3 2 2 2 2 3 3 3 3 3 4 4 3 3 3 3 2 3 2 2 3 3 3 1 1 2 2 3 3 3 4 4 4 5 5 6 5 5 6 6
2 2 2 2 1 1 1 2 2 2 2 2 3 3 3 2 2 2 2 3 3 3 2 2 3 3 3 1 2 2 3 3 3 4 4 4 4 4 4 5 5 5 5 6
3 2 2 2 2 3 3 2 1 1 1 1 2 2 2 2 3 3 2 2 3 3 2 3 4 4 2 2 2 3 3 4 4 4 4 4 4 5 5 4 4 5 5 5
3 3 3 4 4 3 2 2 2 2 2 2 2 2 2 2 2 2 2 2 2 3 2 2 2 3 2 3 3 3 3 4 5 4 4 4 4 5 5 5 5 5 5 5
3 2 2 2 2 2 3 3 3 3 3 3 3 3 2 2 2 2 2 2 2 2 2 2 2 3 3 3 3 3 3 3 4 4 4 4 4 5 5 6 5 5 5 5
Wind_Direction
235 242 211 221 218 187 187 192 196 218 220 246 244 231 224 203 170 151 168 177 182 187 186 176 176 185 187 192 185 175 169 182 197 193 182 174 173 172 165 162 169 163 151 149
275 265 237 260 252 220 216 208 206 220 249 246 231 192 186 190 174 181 197 204 201 193 186 191 199 199 188 195 195 170 176 198 193 173 166 170 176 167 157 161 161 144 150 155
247 290 345 272 246 217 212 206 186 214 234 228 202 200 200 201 196 201 205 204 200 202 205 206 207 199 199 202 182 166 175 185 177 167 170 178 174 161 167 172 159 152 159 158
179 84 235 249 236 197 205 236 215 217 229 211 215 212 205 197 197 209 207 203 204 204 206 208 202 192 190 171 166 172 175 180 179 169 172 172 164 174 181 169 164 171 172 175
154 205 263 281 252 190 189 248 233 218 230 229 218 73 303 239 208 212 206 202 202 199 195 189 182 176 158 161 165 173 190 200 193 181 176 170 174 181 177 163 165 168 164 168
159 186 230 247 254 211 149 262 259 206 214 200 128 166 259 252 207 211 200 187 181 167 156 164 174 153 148 163 169 198 211 208 195 179 176 178 180 170 153 158 168 159 155 169
190 215 253 258 258 137 173 246 259 193 195 174 182 214 243 224 193 185 172 165 153 146 154 180 172 152 156 168 202 216 200 173 171 176 179 177 165 157 145 143 141 144 151 160
176 208 248 253 150 180 216 231 176 176 179 191 213 242 267 169 172 156 143 137 144 147 157 167 162 156 164 203 220 182 158 156 166 171 173 165 153 150 147 143 146 155 154 169
191 213 243 235 197 212 174 177 194 185 210 187 203 223 215 194 180 168 158 155 152 149 145 148 171 168 181 218 181 145 143 156 160 153 150 150 153 153 147 150 158 176 174 193
237 258 267 264 278 282 186 199 211 199 196 185 201 208 198 188 188 177 169 164 155 147 152 186 199 188 196 189 160 147 154 163 158 157 153 151 155 159 162 174 180 185 194 203
249 265 290 278 258 255 245 206 147 144 182 191 180 191 199 197 195 187 178 170 164 166 179 206 203 192 182 161 157 154 159 165 165 167 163 159 160 175 186 198 192 189 199 193
233 234 215 245 250 234 213 223 202 165 327 308 186 191 187 197 199 181 175 169 168 174 181 198 195 203 191 170 163 163 166 173 177 175 172 165 157 129 179 186 195 196 185 177
231 241 233 248 257 236 226 240 228 201 200 235 224 171 161 171 180 163 172 178 186 192 191 187 193 208 211 187 177 174 177 182 182 179 181 182 178 174 182 350 29 204 205 192
232 227 252 248 246 242 230 254 245 247 263 204 175 130 125 119 134 151 189 202 193 186 195 194 197 222 222 191 184 186 182 188 187 189 190 190 194 194 189 184 195 262 252 215
241 231 228 231 224 232 243 277 22 343 355 31 103 127 132 144 180 209 215 185 161 172 212 213 210 232 220 192 190 190 190 193 190 186 188 192 193 193 190 190 192 199 207 232
237 230 212 207 213 216 217 212 211 243 251 247 212 196 191 186 191 189 181 167 173 211 229 227 237 240 218 199 192 194 201 204 197 187 186 193 193 196 200 200 202 205 212 214
198 213 213 217 222 225 225 223 215 218 225 227 223 207 165 143 152 210 239 229 214 225 223 225 243 246 224 206 196 198 199 205 208 203 199 202 205 208 207 206 210 216 226 220
219 219 214 208 212 219 225 224 214 209 213 220 201 172 173 186 211 232 243 255 278 311 275 257 245 235 219 204 202 198 194 197 204 210 213 213 218 217 208 207 212 218 227 221
240 231 230 226 214 205 205 212 215 211 206 198 185 194 212 223 224 233 232 213 215 255 269 252 228 227 227 214 211 189 190 196 205 215 219 215 221 223 216 214 218 223 224 221
258 238 222 225 206 193 198 201 192 189 198 191 184 203 234 241 230 225 226 237 242 243 238 234 217 230 229 211 205 191 193 201 209 219 224 221 221 222 220 221 223 225 226 225
253 246 212 205 211 209 205 193 180 195 214 194 185 214 235 238 222 206 215 259 284 282 241 235 245 245 230 211 209 200 201 207 214 222 226 226 226 223 222 223 225 228 229 228
261 248 222 202 201 229 229 200 193 201 206 204 199 204 211 219 213 218 242 253 261 270 271 233 240 249 247 253 221 210 212 214 223 236 237 233 230 227 230 233 232 232 232 231
257 233 224 214 213 224 225 206 201 195 200 201 198 203 213 221 212 209 255 267 246 258 270 240 245 255 267 268 234 225 226 231 242 249 245 241 237 234 235 236 236 234 234 237
264 241 232 216 174 167 208 235 224 213 214 218 217 213 208 216 247 251 251 252 259 264 259 240 246 254 266 262 242 240 238 240 250 257 253 245 240 241 243 243 243 239 238 240
257 245 231 202 201 223 232 233 229 233 230 244 252 245 234 225 231 242 244 233 239 254 263 251 254 262 261 252 247 248 248 248 253 253 245 245 243 243 242 241 244 247 246 244
253 241 234 227 222 222 217 212 222 226 219 233 251 246 252 254 237 233 243 243 236 257 263 252 240 247 247 248 252 255 256 258 262 259 249 250 250 247 247 243 242 246 253 253
252 243 238 246 245 228 219 215 220 227 222 220 235 240 236 241 240 237 239 238 237 245 253 253 244 238 240 247 253 260 265 263 257 254 252 252 251 249 246 245 248 251 253 255
Height
1518 1516 1517 1518 1518 1519 1522 1525 1530 1527 1525 1518 1514 1514 1513 1514 1514 1515 1517 1518 1519 1520 1522 1523 1525 1526 1527 1528 1530 1531 1532 1533 1534 1536 1537 1538 1539 1540 1541 1542 1543 1544 1544 1545
1518 1515 1516 1517 1515 1516 1517 1518 1521 1521 1520 1511 1511 1511 1512 1513 1513 1514 1515 1516 1517 1519 1520 1521 1523 1524 1525 1527 1528 1529 1530 1531 1532 1533 1534 1536 1537 1538 1539 1540 1541 1542 1542 1543
1525 1518 1516 1520 1512 1512 1513 1512 1514 1517 1513 1508 1510 1509 1509 1510 1510 1511 1512 1514 1515 1517 1518 1520 1521 1522 1524 1525 1526 1527 1528 1529 1530 1531 1532 1533 1535 1536 1537 1538 1539 1540 1540 1541
1526 1522 1527 1514 1504 1505 1507 1507 1507 1506 1505 1505 1505 1505 1506 1507 1508 1509 1510 1512 1513 1515 1516 1518 1520 1521 1522 1523 1524 1525 1526 1527 1528 1529 1530 1531 1532 1533 1534 1535 1536 1537 1538 1539
1528 1527 1521 1509 1502 1503 1506 1506 1502 1502 1502 1502 1503 1504 1505 1505 1506 1507 1508 1509 1511 1513 1514 1516 1517 1519 1520 1520 1521 1522 1523 1524 1525 1527 1527 1529 1530 1531 1532 1533 1534 1535 1536 1537
1525 1524 1523 1507 1498 1498 1502 1506 1499 1499 1500 1501 1502 1507 1504 1502 1503 1504 1506 1508 1509 1511 1512 1514 1515 1516 1517 1518 1518 1519 1520 1522 1523 1524 1525 1526 1527 1528 1529 1530 1531 1532 1533 1534
1521 1520 1513 1500 1496 1497 1509 1505 1497 1496 1497 1499 1500 1501 1500 1500 1501 1502 1504 1506 1507 1508 1510 1511 1513 1514 1515 1515 1516 1517 1518 1519 1520 1521 1522 1523 1524 1526 1527 1528 1529 1529 1530 1531
1519 1519 1513 1495 1495 1499 1498 1494 1495 1495 1495 1496 1497 1497 1497 1498 1499 1500 1501 1503 1505 1506 1507 1509 1511 1512 1512 1513 1514 1515 1516 1516 1518 1519 1520 1520 1522 1523 1524 1525 1526 1527 1528 1529
1505 1504 1495 1492 1492 1492 1492 1493 1493 1493 1494 1494 1495 1495 1495 1496 1497 1498 1500 1501 1502 1504 1505 1507 1508 1509 1510 1511 1512 1512 1513 1514 1515 1516 1517 1518 1519 1520 1521 1522 1523 1524 1525 1526
1500 1495 1492 1491 1490 1490 1490 1491 1491 1492 1492 1492 1492 1493 1493 1494 1495 1496 1497 1499 1500 1502 1503 1504 1505 1506 1507 1508 1509 1509 1510 1511 1512 1513 1514 1515 1516 1517 1518 1519 1520 1521 1522 1523
1497 1492 1490 1489 1488 1488 1489 1489 1489 1489 1490 1490 1490 1491 1491 1492 1492 1494 1495 1497 1498 1499 1500 1502 1503 1503 1504 1505 1506 1506 1507 1508 1509 1510 1511 1512 1513 1514 1515 1516 1518 1518 1519 1520
1491 1487 1487 1486 1486 1486 1486 1486 1486 1487 1487 1487 1488 1488 1488 1489 1490 1491 1492 1494 1495 1497 1498 1499 1500 1501 1501 1502 1503 1503 1504 1505 1506 1507 1508 1509 1509 1510 1511 1513 1514 1515 1516 1517
1482 1482 1483 1483 1484 1484 1484 1484 1484 1484 1484 1484 1485 1485 1486 1486 1487 1488 1490 1491 1492 1493 1495 1496 1497 1497 1498 1499 1499 1500 1501 1501 1502 1503 1504 1505 1506 1506 1507 1509 1510 1511 1512 1513
1479 1480 1480 1479 1480 1480 1480 1481 1481 1482 1482 1482 1482 1482 1483 1483 1484 1485 1486 1488 1489 1490 1491 1493 1493 1494 1495 1496 1496 1497 1498 1498 1499 1500 1500 1501 1502 1503 1504 1505 1506 1506 1508 1509
1475 1476 1476 1476 1476 1477 1477 1478 1478 1478 1478 1478 1479 1479 1480 1481 1481 1482 1484 1485 1486 1487 1488 1489 1489 1490 1492 1492 1493 1493 1494 1495 1495 1496 1497 1498 1499 1499 1500 1501 1502 1503 1504 1505
1470 1471 1471 1472 1472 1473 1474 1475 1475 1475 1475 1475 1476 1476 1477 1478 1479 1480 1481 1482 1483 1483 1484 1485 1485 1486 1487 1488 1489 1489 1490 1491 1491 1492 1493 1493 1494 1495 1495 1496 1497 1498 1499 1500
1465 1466 1467 1468 1469 1469 1470 1471 1472 1472 1472 1473 1473 1474 1475 1475 1476 1477 1478 1479 1479 1480 1480 1480 1481 1482 1482 1483 1484 1485 1485 1486 1487 1488 1488 1489 1490 1490 1491 1491 1492 1493 1494 1495
1462 1462 1464 1464 1465 1466 1467 1468 1468 1469 1470 1470 1471 1471 1472 1472 1473 1473 1474 1475 1475 1475 1476 1476 1477 1477 1478 1478 1479 1480 1480 1481 1482 1483 1483 1484 1485 1485 1486 1487 1487 1488 1489 1490
1458 1459 1460 1461 1461 1462 1463 1464 1465 1466 1467 1467 1468 1468 1469 1469 1470 1470 1470 1470 1470 1470 1471 1472 1472 1473 1473 1473 1474 1475 1475 1476 1477 1477 1478 1479 1480 1480 1481 1481 1482 1483 1483 1484
1456 1456 1457 1457 1458 1459 1460 1461 1462 1463 1463 1464 1465 1465 1465 1466 1466 1466 1467 1466 1467 1467 1467 1467 1468 1468 1468 1469 1469 1470 1470 1471 1471 1472 1473 1473 1474 1474 1475 1476 1476 1477 1478 1478
1453 1453 1454 1454 1455 1456 1457 1458 1459 1459 1460 1461 1461 1461 1462 1462 1463 1463 1463 1463 1463 1464 1464 1464 1464 1464 1465 1465 1465 1465 1465 1466 1466 1466 1467 1467 1468 1469 1469 1470 1470 1471 1471 1472
1450 1451 1451 1452 1452 1453 1454 1455 1456 1456 1457 1457 1458 1458 1459 1458 1459 1459 1459 1460 1460 1460 1460 1460 1460 1461 1461 1461 1460 1460 1460 1461 1461 1461 1461 1462 1462 1462 1463 1464 1464 1465 1465 1466
1449 1449 1449 1449 1450 1450 1451 1452 1453 1453 1453 1454 1454 1455 1455 1455 1455 1455 1455 1456 1456 1456 1456 1456 1456 1457 1457 1456 1456 1456 1456 1456 1456 1456 1456 1456 1456 1457 1457 1458 1458 1459 1459 1459
1447 1446 1447 1447 1447 1448 1448 1448 1449 1450 1450 1450 1451 1451 1451 1451 1451 1452 1452 1452 1452 1452 1452 1452 1452 1452 1452 1452 1452 1451 1451 1451 1450 1450 1450 1451 1451 1451 1451 1451 1452 1452 1452 1453
1444 1444 1444 1444 1444 1444 1445 1446 1446 1446 1447 1447 1447 1447 1448 1448 1448 1447 1448 1448 1448 1448 1448 1448 1448 1448 1448 1447 1447 1446 1446 1446 1445 1445 1445 1445 1445 1445 1445 1445 1445 1445 1445 1446
1441 1441 1441 1441 1441 1442 1442 1442 1442 1442 1443 1442 1443 1443 1444 1444 1444 1444 1444 1444 1444 1444 1444 1443 1443 1443 1443 1442 1442 1441 1441 1440 1440 1440 1439 1439 1439 1439 1439 1439 1439 1439 1439 1438
1437 1437 1438 1438 1438 1438 1439 1438 1438 1438 1438 1438 1438 1439 1440 1440 1440 1440 1440 1440 1440 1439 1439 1439 1439 1438 1438 1437 1436 1436 1435 1435 1435 1434 1434 1433 1433 1433 1433 1432 1432 1432 1432 1431